Location: Newark
(39.9581°N, 97.2014°W)
Time: 12:53:02
(UTC+00:00)

A-11 Canister half - Visible Passes

Search period start: 17 February 2020 00:00
Search period end: 27 February 2020 00:00
Orbit: 1525 x 1684 km, 47.3° (Epoch: 17 February)

Date Brightness Start Highest point End Pass type
(mag) Time Alt. Az. Time Alt. Az. Time Alt. Az.
17 Feb 9.7 00:36:34 10° WNW 00:45:34 55° SW 00:54:48 10° SSE visible
17 Feb 11.2 02:44:42 10° W 02:49:04 14° WSW 02:53:29 10° SSW visible
18 Feb 9.7 00:14:55 10° WNW 00:23:58 58° SW 00:33:14 10° SE visible
18 Feb 11.2 02:22:39 10° W 02:27:30 15° SW 02:32:27 10° SSW visible
19 Feb 11.2 02:00:41 10° W 02:05:57 17° SW 02:11:20 10° SSW visible
20 Feb 11.2 01:38:44 10° W 01:44:24 18° SW 01:50:09 10° SSW visible
21 Feb 11.2 01:16:51 10° W 01:22:50 19° SW 01:28:57 10° SSW visible
22 Feb 11.2 00:54:58 10° W 01:01:17 21° SW 01:07:42 10° S visible
23 Feb 11.2 00:33:09 10° W 00:39:44 22° SW 00:46:24 10° S visible
